Skagway, AK

5:40 AM AKDT on October 20, 2017 (GMT -0800)
Skagway

Weather History for PAGY - November, 2010

Change the Weather History Date:

Saturday, November 13, 2010

  Actual Average Record
Temperature  
Mean Temperature 44 °F -  
Max Temperature 48 °F 37 °F 51 °F (2016)
Min Temperature 39 °F 30 °F 4 °F (1989)
Degree Days  
Heating Degree Days 22    
Moisture  
Dew Point 38 °F    
Average Humidity 77    
Maximum Humidity 93    
Minimum Humidity 63    
Precipitation  
Precipitation 0.03 in - - ()
Sea Level Pressure  
Sea Level Pressure 29.78 in    
Wind  
Wind Speed 15 mph (SSW)    
Max Wind Speed 36 mph    
Max Gust Speed 46 mph    
Visibility 10 miles    
Events Rain    
Averages and records for this station are not official NWS values.
T = Trace of Precipitation, MM = Missing Value Source: NWS Daily Summary

Daily Weather History Graph

Daily Weather History Graph

Search for Another Location

Airport or City:

Trip Planner

Search our weather history database for the weather conditions in past years. The results will help you decide how hot, cold, wet, or windy it might be!

Date:

Astronomy

Nov. 13, 2010 Rise Set
Actual Time 7:51 AM AKST 3:38 PM AKST
Civil Twilight 7:04 AM AKST 4:26 PM AKST
Nautical Twilight 6:13 AM AKST 5:16 PM AKST
Astronomical Twilight 5:25 AM AKST 6:04 PM AKST
Moon 1:18 PM AKST (11/13) 11:32 PM AKST (11/13)
Length of Visible Light 9h 22m
Length of Day
7h 47m
First Quarter, 52% of the Moon is Illuminated
Nov 13
First Quarter
Nov 21
Full
Nov 28
Last Quarter
Dec 5
New
Dec 13
First Quarter

Hourly Weather History & Observations

Time (AKST) Temp. Windchill Dew Point Humidity Pressure Visibility Wind Dir Wind Speed Gust Speed Precip Events Conditions
12:53 AM 42.1 °F 37.7 °F 39.0 °F 89% 29.65 in 10.0 mi ENE 6.9 mph - 0.02 in Rain Light Rain
1:10 AM 44.6 °F 43.1 °F 41.0 °F 87% 29.66 in 10.0 mi Variable 3.5 mph - 0.00 in Rain Light Rain
1:53 AM 46.0 °F 40.6 °F 41.0 °F 83% 29.66 in 10.0 mi South 11.5 mph 16.1 mph 0.01 in Rain Light Rain
2:53 AM 46.0 °F 39.0 °F 39.9 °F 79% 29.68 in 10.0 mi SSW 17.3 mph 23.0 mph 0.00 in Rain Light Rain
3:53 AM 46.0 °F 38.8 °F 39.9 °F 79% 29.69 in 10.0 mi SSW 18.4 mph 28.8 mph 0.00 in   Overcast
4:53 AM 46.0 °F 37.6 °F 41.0 °F 83% 29.71 in 10.0 mi SSW 24.2 mph 32.2 mph N/A   Overcast
5:53 AM 46.0 °F 38.3 °F 41.0 °F 83% 29.71 in 10.0 mi SSW 20.7 mph 33.4 mph N/A   Overcast
6:53 AM 46.0 °F 37.6 °F 41.0 °F 83% 29.73 in 10.0 mi SSW 24.2 mph 40.3 mph N/A   Mostly Cloudy
7:53 AM 46.9 °F - 41.0 °F 80% 29.72 in 10.0 mi SSW 35.7 mph 46.0 mph N/A   Overcast
8:53 AM 46.9 °F - 41.0 °F 80% 29.76 in 10.0 mi SSW 27.6 mph 40.3 mph N/A   Mostly Cloudy
9:53 AM 48.0 °F - 39.9 °F 74% 29.78 in 10.0 mi SSW 26.5 mph 39.1 mph N/A   Mostly Cloudy
10:53 AM 48.0 °F - 39.0 °F 71% 29.79 in 10.0 mi SSW 28.8 mph 40.3 mph N/A   Mostly Cloudy
11:53 AM 46.9 °F - 37.9 °F 71% 29.83 in 10.0 mi SSW 24.2 mph 34.5 mph N/A   Partly Cloudy
12:53 PM 48.0 °F - 36.0 °F 63% 29.85 in 10.0 mi SW 33.4 mph 43.7 mph N/A   Scattered Clouds
1:53 PM 46.9 °F - 35.1 °F 63% 29.87 in 10.0 mi SW 27.6 mph 38.0 mph N/A   Clear
2:53 PM 46.9 °F - 35.1 °F 63% 29.85 in 10.0 mi SW 29.9 mph 36.8 mph N/A   Clear
3:53 PM 46.0 °F 38.3 °F 35.1 °F 66% 29.85 in 10.0 mi SSW 20.7 mph - N/A   Clear
4:53 PM 46.0 °F 40.6 °F 34.0 °F 63% 29.86 in 10.0 mi SSW 11.5 mph - N/A   Clear
5:53 PM 46.0 °F - 34.0 °F 63% 29.86 in 10.0 mi Calm Calm - N/A   Partly Cloudy
6:53 PM 45.0 °F 41.2 °F 36.0 °F 71% 29.86 in 10.0 mi SSW 6.9 mph - N/A   Overcast
7:53 PM 44.1 °F 39.0 °F 37.0 °F 76% 29.83 in 10.0 mi SSW 9.2 mph - N/A   Mostly Cloudy
8:53 PM 44.1 °F 38.1 °F 39.0 °F 82% 29.83 in 10.0 mi SSW 11.5 mph - 0.00 in Rain Light Rain
9:53 PM 43.0 °F 40.3 °F 37.9 °F 82% 29.81 in 10.0 mi West 4.6 mph - 0.00 in   Overcast
10:28 PM 41.0 °F 39.0 °F 37.4 °F 87% 29.81 in 10.0 mi NNE 3.5 mph - N/A   Overcast
10:53 PM 39.9 °F 37.8 °F 37.9 °F 93% 29.81 in 10.0 mi NE 3.5 mph - N/A   Overcast
11:53 PM 39.9 °F - 37.9 °F 93% 29.80 in 10.0 mi Calm Calm - N/A   Overcast